Location: Unspecified
(0.0000°N, 0.0000°E)
Time: 18:37:25
(UTC+00:00)

S-56A Canister/Altair - Visible Passes

Search period start: 20 December 2014 00:00
Search period end: 30 December 2014 00:00
Orbit: 634 x 2502 km, 38.9° (Epoch: 19 December)

Date Brightness Start Highest point End Pass type
(mag) Time Alt. Az. Time Alt. Az. Time Alt. Az.
20 Dec 11.0 19:07:53 10° SSW 19:18:46 23° SSE 19:27:43 12° ESE visible
20 Dec 9.8 21:12:09 10° SW 21:25:10 62° S 21:25:10 62° S visible
20 Dec 11.4 23:20:39 10° WSW 23:22:37 15° WSW 23:22:37 15° WSW visible
21 Dec 11.2 18:35:22 10° S 18:45:24 21° SSE 18:54:56 10° ESE visible
21 Dec 9.8 20:39:04 10° SW 20:53:50 59° SE 20:54:36 58° SE visible
21 Dec 11.0 22:46:52 10° WSW 22:52:04 25° WSW 22:52:04 25° WSW visible
22 Dec 11.3 18:03:01 10° S 18:12:00 18° SSE 18:20:49 10° ESE visible
22 Dec 9.9 20:06:04 10° SSW 20:20:41 53° SE 20:24:06 45° ESE visible
22 Dec 10.6 22:13:13 10° WSW 22:21:34 37° W 22:21:34 37° W visible
23 Dec 10.2 19:33:11 10° SSW 19:47:29 47° SE 19:53:38 32° E visible
23 Dec 10.1 21:39:40 10° WSW 21:51:06 54° W 21:51:06 54° W visible
24 Dec 10.5 19:00:24 10° SSW 19:14:15 42° SE 19:23:14 21° E visible
24 Dec 9.7 21:06:16 10° SW 21:20:42 72° WNW 21:20:42 72° WNW visible
25 Dec 10.7 18:27:45 10° SSW 18:40:59 38° SE 18:52:52 12° E visible
25 Dec 9.6 20:32:59 10° SW 20:48:18 82° NW 20:50:21 71° NNE visible
25 Dec 11.3 22:43:53 10° W 22:47:49 18° W 22:47:49 18° W visible
26 Dec 9.8 19:59:49 10° SW 20:15:11 89° SE 20:20:02 51° NE visible
26 Dec 10.9 22:09:39 10° W 22:17:30 27° WNW 22:17:30 27° WNW visible
27 Dec 9.9 19:26:48 10° SW 19:42:01 81° SE 19:49:45 35° NE visible
27 Dec 10.6 21:35:39 10° WSW 21:47:14 35° NW 21:47:14 35° NW visible
28 Dec 10.0 18:53:54 10° SW 19:08:49 73° SE 19:19:30 22° ENE visible
28 Dec 10.3 21:01:51 10° WSW 21:15:34 42° NW 21:16:59 41° NNW visible
29 Dec 10.2 18:21:08 10° SW 18:35:35 65° SE 18:49:17 12° ENE visible
29 Dec 10.2 20:28:14 10° WSW 20:42:30 48° NW 20:46:46 40° N visible
